Wetbulb
72.29 75.43 77.66 77.15 76.89 76.90 77.11 77.09 77.05 77.21 77.36 77.36 77.50 77.16 76.83 76.19 76.24 76.26 76.27 76.10 76.15 75.72 75.26 75.68 75.71 75.57 75.74 76.01 76.89 76.67 76.65 76.97 76.96 77.02 77.49 76.99 76.89 77.74 77.62 76.05 75.64 74.65 75.86
74.13 75.68 78.04 77.89 76.98 77.25 77.67 77.26 77.15 77.04 76.96 77.05 76.75 76.55 76.49 76.51 76.51 76.43 76.24 76.40 76.22 75.64 75.32 75.57 75.46 75.90 75.52 76.12 76.32 76.40 75.09 76.96 77.06 76.38 76.73 77.11 76.95 77.04 77.23 77.45 76.99 75.67 75.84
73.65 75.10 76.63 77.70 76.52 76.62 76.90 77.19 77.00 77.10 77.21 77.24 77.09 76.87 76.39 76.39 76.25 76.22 76.25 75.98 75.84 75.43 75.04 75.15 75.57 75.65 75.76 76.15 75.71 75.98 76.17 76.32 76.09 76.33 75.77 76.41 76.08 76.05 76.85 77.46 77.02 77.41 77.48
74.01 75.46 75.76 74.30 73.47 74.52 75.19 76.91 76.63 77.03 77.06 77.28 77.24 76.93 77.26 76.74 76.32 75.95 75.84 75.68 75.40 75.38 75.43 75.65 75.90 75.68 76.07 76.25 76.06 76.15 75.35 74.43 73.72 74.58 75.16 75.55 75.48 75.96 75.86 76.40 76.15 76.82 76.92
75.01 75.25 75.05 74.18 73.46 74.39 75.21 76.28 77.13 77.04 77.34 76.92 76.74 76.81 77.25 77.02 76.78 76.47 76.28 76.05 75.81 75.95 76.18 76.42 76.04 75.85 76.04 75.82 75.98 75.49 74.92 74.36 73.33 71.26 73.92 74.75 76.01 75.58 75.78 75.76 76.31 76.72 76.99
74.84 75.34 75.01 74.68 74.95 75.13 75.17 76.14 77.30 76.95 77.08 77.02 76.46 76.98 76.87 76.86 76.55 76.48 76.14 76.22 76.31 76.65 76.89 76.34 75.98 75.79 75.46 75.35 75.54 75.42 73.36 74.23 74.06 73.19 72.81 73.60 75.13 75.08 75.95 76.45 76.12 76.34 75.99
74.82 75.02 74.81 75.84 74.44 75.64 75.58 76.51 77.23 76.86 76.84 76.75 76.92 76.99 76.77 76.80 76.73 76.51 76.67 76.91 76.63 76.83 76.81 76.40 76.32 75.54 75.18 74.65 74.79 74.87 74.60 73.74 74.79 72.93 71.33 73.55 74.62 74.07 75.67 75.10 75.88 76.07 75.91
74.44 75.19 75.44 75.82 75.88 76.15 76.23 77.33 77.05 76.86 76.58 76.41 76.89 77.12 77.08 76.84 76.63 76.70 76.52 76.91 76.65 76.40 76.45 75.90 75.02 74.93 74.91 74.60 74.98 74.92 75.01 75.22 72.74 73.62 72.53 71.87 73.87 74.56 75.36 75.53 75.25 75.54 75.89
75.74 75.93 75.58 76.24 76.14 76.38 77.40 77.23 76.43 75.93 76.35 76.11 76.73 76.84 76.77 76.62 76.37 76.40 76.59 76.85 76.52 76.32 75.68 75.15 74.88 74.92 75.20 74.90 75.15 74.44 74.16 71.89 73.63 75.41 73.73 71.83 72.80 75.03 75.25 75.72 75.82 75.82 76.04
75.83 76.18 76.13 76.54 76.96 77.41 77.04 76.52 76.57 76.58 76.31 75.80 76.55 76.86 76.82 76.47 76.42 75.87 75.95 76.53 75.99 75.40 75.01 74.84 74.98 75.27 75.12 74.57 74.57 74.85 75.29 72.93 72.80 74.04 74.88 73.67 73.00 74.25 75.48 75.00 75.59 75.76 75.94
74.46 75.05 76.09 75.74 77.13 77.23 76.18 76.01 76.70 76.39 76.45 75.61 76.58 76.57 77.03 76.88 76.86 76.46 76.33 75.80 75.76 75.54 75.38 75.38 75.52 76.12 76.02 74.85 73.21 72.95 74.61 75.39 73.38 73.62 75.22 73.00 74.11 74.71 75.49 75.55 75.29 75.25 75.64
72.14 74.28 76.10 75.49 76.64 76.73 75.46 76.79 77.31 76.85 76.59 76.95 77.17 77.53 77.38 77.52 76.91 76.60 75.92 75.18 75.84 75.87 76.01 75.93 76.29 76.35 76.48 75.85 73.95 73.38 75.05 74.47 73.81 73.70 73.11 71.37 72.27 74.44 75.64 74.70 75.30 75.11 75.05
72.61 73.99 75.55 76.13 76.89 76.04 75.16 75.71 76.01 76.26 76.56 76.68 77.67 77.83 77.00 76.45 76.23 75.91 75.44 75.73 76.14 75.25 75.47 74.90 74.70 75.80 75.87 75.16 74.84 73.81 74.03 74.37 74.89 74.28 74.94 72.84 73.51 74.38 75.23 75.69 76.14 75.77 75.27
71.91 72.80 74.97 75.96 75.89 75.73 75.60 74.47 74.79 75.09 75.69 75.84 76.76 77.31 75.59 73.93 74.99 76.22 75.52 75.85 75.75 74.62 73.68 74.28 74.75 75.80 75.98 75.64 74.51 73.70 74.49 75.00 75.30 75.35 75.33 73.51 74.73 75.03 75.59 75.63 76.40 75.75 75.18
71.10 72.37 73.95 75.23 75.80 75.21 75.22 74.53 73.34 74.36 74.40 75.90 76.07 76.24 75.35 75.11 75.81 75.81 76.11 76.07 76.35 76.20 74.31 74.35 75.54 75.25 75.93 75.66 73.31 73.99 74.33 74.60 75.02 75.88 75.60 74.72 75.27 75.31 75.58 75.91 75.92 76.57 75.83
71.30 72.15 73.53 74.57 75.46 75.24 74.83 74.87 73.13 73.39 74.27 75.54 75.33 74.59 74.40 75.17 75.42 76.62 76.45 75.91 75.88 75.91 75.36 75.07 75.31 75.29 76.13 76.07 75.72 75.41 74.03 75.25 75.90 75.65 76.90 75.92 74.81 75.23 76.10 76.00 75.99 76.60 76.58
71.75 72.21 72.72 73.96 74.54 74.82 74.32 74.14 73.26 73.57 73.69 75.02 74.53 75.05 74.65 75.27 76.43 77.02 76.34 75.82 75.82 76.42 75.97 76.10 75.73 75.79 75.59 75.68 75.82 75.09 74.40 73.99 74.21 73.24 74.08 76.20 75.96 73.42 73.73 76.42 75.93 76.53 76.51
72.33 71.98 72.43 72.91 73.66 74.19 73.52 73.50 73.61 74.00 73.15 73.53 74.33 75.76 75.98 76.47 76.65 76.76 76.80 76.14 77.32 77.76 77.18 76.74 75.38 75.10 75.44 75.07 74.94 75.44 74.98 74.49 75.16 75.22 77.15 77.58 77.60 76.59 74.95 73.94 75.92 76.76 76.45
72.47 71.88 71.80 72.72 72.92 73.67 74.06 73.74 73.55 74.37 73.96 72.86 74.01 74.79 75.28 76.01 76.23 76.00 76.56 76.98 76.97 76.66 76.11 76.07 76.98 75.94 75.16 74.90 74.48 75.39 74.95 74.61 74.59 75.68 76.27 76.97 76.74 76.78 76.46 75.12 74.24 76.22 76.75
72.80 72.45 72.12 72.15 72.67 73.43 73.66 73.68 73.17 73.28 73.80 73.69 72.77 73.50 73.85 74.92 75.90 75.71 76.26 76.83 76.85 76.45 75.24 74.43 76.55 75.44 75.47 74.92 74.10 73.92 74.59 74.34 75.35 76.18 75.95 76.34 77.22 77.14 76.89 76.26 76.89 76.42 75.88
72.39 72.28 71.82 71.59 72.41 72.55 72.28 71.75 71.54 70.92 72.72 73.00 72.60 72.92 73.14 73.30 75.52 76.03 75.46 76.13 76.59 76.29 75.59 75.82 76.82 74.71 74.81 75.76 74.12 73.70 74.29 74.91 75.49 75.84 77.15 77.29 76.69 77.13 77.56 77.82 76.95 76.93 76.26
71.47 71.98 72.02 72.13 72.75 72.83 72.41 72.62 72.26 72.34 73.38 73.47 72.69 72.23 72.91 72.95 74.85 75.40 75.79 75.40 76.63 75.82 75.96 76.57 76.37 74.75 75.66 75.60 73.01 72.52 69.94 72.22 74.77 74.85 76.58 76.70 75.70 76.16 76.04 75.69 77.38 76.86 76.96
71.57 71.66 72.12 72.60 72.52 72.81 73.64 72.67 72.31 72.99 73.17 72.18 71.93 71.77 72.39 73.24 73.99 75.90 75.84 76.07 76.26 75.79 75.45 75.78 75.40 75.01 74.52 75.92 75.27 73.68 69.75 68.75 70.91 74.30 74.66 75.33 75.34 75.44 76.00 75.29 74.81 76.00 76.63
71.50 72.47 72.70 72.81 73.09 73.18 73.60 72.10 71.58 70.93 70.53 71.80 72.29 72.75 72.26 73.33 73.83 75.54 75.92 76.19 76.15 76.06 76.09 75.41 76.66 76.37 76.59 74.83 75.03 73.94 74.22 73.04 69.05 68.37 73.63 74.39 74.48 74.33 75.10 75.89 74.81 74.59 75.03
71.78 72.01 72.75 72.91 73.27 73.58 73.26 73.39 71.93 71.83 72.04 72.37 72.20 72.42 73.68 73.47 74.27 75.38 76.06 76.78 76.08 75.76 76.27 75.48 75.62 76.79 76.16 75.05 74.38 74.20 74.21 73.56 73.82 70.89 67.49 70.32 72.74 74.33 74.92 75.51 76.15 75.07 75.44
71.56 71.89 72.30 72.45 72.84 73.47 73.08 72.79 72.57 72.07 71.96 70.05 71.35 70.97 72.01 72.88 73.53 75.18 75.68 76.80 76.81 76.40 76.10 75.99 76.34 76.29 76.70 76.12 75.85 75.07 72.55 71.03 70.47 70.10 68.75 69.79 70.03 72.30 74.69 76.72 77.15 76.87 76.03
MSLP
1015.90 1015.92 1016.50 1016.75 1016.80 1016.92 1017.04 1017.17 1017.31 1017.33 1017.41 1017.52 1017.75 1017.87 1018.00 1018.17 1018.24 1018.32 1018.52 1018.77 1018.86 1018.88 1018.76 1018.71 1018.69 1018.82 1018.90 1018.99 1019.09 1019.08 1019.14 1019.21 1019.35 1019.67 1019.87 1019.93 1019.99 1020.06 1020.16 1020.40 1020.36 1020.19 1020.72
1015.28 1016.02 1016.43 1016.85 1017.07 1017.14 1017.31 1017.39 1017.57 1017.65 1017.67 1017.76 1017.87 1018.00 1018.24 1018.40 1018.50 1018.57 1018.70 1018.84 1018.98 1018.92 1018.90 1018.88 1018.82 1018.89 1019.04 1019.12 1019.18 1019.25 1019.33 1019.31 1019.45 1019.77 1019.95 1020.16 1020.18 1020.17 1020.34 1020.48 1020.40 1020.62 1021.01
1015.31 1015.94 1016.54 1016.92 1017.19 1017.33 1017.47 1017.65 1017.75 1017.83 1017.91 1017.94 1018.06 1018.17 1018.44 1018.53 1018.55 1018.65 1018.83 1018.81 1018.92 1019.06 1019.08 1018.98 1018.93 1018.99 1019.13 1019.28 1019.34 1019.43 1019.51 1019.59 1019.72 1019.92 1020.12 1019.83 1019.75 1020.36 1020.35 1020.45 1020.83 1021.04 1021.11
1015.18 1015.79 1016.53 1016.99 1017.30 1017.43 1017.54 1017.80 1017.80 1017.97 1018.11 1018.09 1018.30 1018.38 1018.43 1018.63 1018.67 1018.84 1018.87 1018.89 1019.00 1019.10 1019.21 1019.22 1019.16 1019.27 1019.39 1019.46 1019.59 1019.56 1019.70 1019.84 1020.09 1020.20 1020.07 1020.14 1019.97 1020.53 1020.46 1020.77 1021.06 1021.26 1021.29
1015.53 1016.02 1016.77 1017.21 1017.45 1017.47 1017.62 1017.93 1018.00 1018.12 1018.22 1018.35 1018.58 1018.52 1018.59 1018.72 1018.80 1018.93 1018.91 1019.04 1019.15 1019.27 1019.35 1019.42 1019.50 1019.63 1019.75 1019.77 1019.79 1019.83 1019.91 1020.03 1020.20 1020.32 1020.33 1020.37 1020.25 1020.45 1020.85 1020.89 1021.06 1021.18 1021.40
1015.59 1015.99 1016.90 1017.18 1017.32 1017.58 1017.83 1018.04 1018.04 1018.24 1018.34 1018.55 1018.59 1018.64 1018.82 1018.86 1018.87 1018.94 1019.05 1019.19 1019.37 1019.48 1019.54 1019.58 1019.76 1019.84 1019.77 1019.83 1019.85 1019.95 1020.04 1020.25 1020.24 1020.18 1020.35 1020.45 1020.37 1020.61 1020.76 1020.96 1021.10 1021.14 1021.35
1015.65 1016.09 1016.76 1017.16 1017.36 1017.64 1017.93 1018.17 1018.05 1018.23 1018.60 1018.70 1018.58 1018.75 1018.92 1018.96 1018.97 1019.12 1019.20 1019.42 1019.53 1019.57 1019.75 1019.85 1019.96 1019.99 1019.93 1019.89 1019.97 1020.04 1020.18 1020.30 1019.97 1020.27 1020.44 1020.36 1020.29 1020.82 1020.85 1021.05 1021.06 1021.22 1021.44
1015.77 1016.09 1016.88 1017.38 1017.64 1017.76 1018.11 1018.21 1018.30 1018.42 1018.70 1018.78 1018.76 1018.85 1018.93 1019.06 1019.16 1019.27 1019.42 1019.61 1019.72 1019.96 1019.98 1020.11 1020.11 1020.12 1020.13 1020.12 1020.14 1020.19 1020.25 1020.32 1020.17 1020.15 1020.41 1020.37 1020.56 1020.92 1020.87 1021.05 1021.20 1021.37 1021.57
1015.81 1016.44 1017.09 1017.36 1017.60 1017.92 1017.96 1018.13 1018.32 1018.41 1018.76 1018.79 1018.93 1019.03 1019.13 1019.18 1019.27 1019.50 1019.48 1019.69 1019.91 1020.07 1020.24 1020.24 1020.26 1020.17 1020.20 1020.18 1020.20 1020.27 1020.39 1020.48 1020.19 1020.14 1020.15 1020.40 1020.88 1020.95 1020.94 1020.95 1021.20 1021.44 1021.63
1016.18 1016.54 1017.21 1017.41 1017.53 1017.92 1017.92 1018.24 1018.25 1018.35 1018.84 1018.88 1019.02 1019.11 1019.20 1019.41 1019.48 1019.64 1019.72 1019.84 1020.03 1020.19 1020.32 1020.25 1020.18 1020.12 1020.20 1020.23 1020.19 1020.19 1020.30 1020.44 1020.30 1020.35 1020.18 1020.16 1020.80 1020.78 1020.71 1020.95 1021.08 1021.36 1021.63
1016.40 1016.67 1017.09 1017.12 1017.62 1017.96 1018.12 1018.16 1018.25 1018.51 1018.84 1019.03 1019.19 1019.16 1019.26 1019.13 1019.37 1019.53 1019.80 1020.09 1020.16 1020.30 1020.28 1020.28 1020.20 1020.17 1020.16 1020.18 1020.24 1020.22 1020.27 1019.85 1019.96 1020.10 1020.09 1020.64 1020.69 1020.55 1020.52 1020.63 1020.78 1021.10 1021.41
1016.18 1016.69 1017.04 1016.99 1017.58 1017.73 1018.01 1018.12 1018.36 1018.41 1018.69 1019.03 1019.11 1019.27 1019.52 1019.56 1019.57 1019.67 1019.94 1020.21 1020.20 1020.30 1020.24 1020.23 1020.09 1020.11 1020.10 1019.89 1019.85 1020.19 1019.80 1019.89 1019.88 1019.89 1019.96 1020.58 1020.61 1020.60 1020.60 1020.67 1020.72 1020.90 1021.20
1015.94 1016.63 1016.97 1017.15 1017.41 1017.47 1018.07 1018.16 1018.38 1018.56 1018.73 1018.95 1019.12 1019.25 1019.60 1019.62 1019.70 1019.71 1019.85 1019.87 1019.87 1019.99 1019.85 1019.78 1019.65 1019.57 1019.69 1019.81 1019.73 1019.86 1019.76 1019.79 1019.60 1019.73 1019.71 1020.32 1020.36 1020.37 1020.41 1020.51 1020.61 1020.62 1020.88
1015.97 1016.52 1016.80 1017.15 1017.52 1017.53 1017.81 1018.20 1018.37 1018.37 1018.60 1018.76 1019.10 1019.33 1019.56 1019.47 1019.65 1019.86 1019.79 1019.79 1019.81 1019.59 1019.77 1019.65 1019.43 1019.47 1019.50 1019.71 1019.60 1019.47 1019.48 1019.27 1019.12 1019.22 1019.49 1020.05 1020.20 1020.19 1020.12 1020.22 1020.40 1020.55 1020.75
1015.72 1016.29 1016.65 1016.95 1017.36 1017.55 1017.83 1018.17 1018.49 1018.32 1018.45 1018.80 1019.08 1019.23 1019.33 1019.38 1019.47 1019.65 1019.66 1019.66 1019.50 1019.45 1019.47 1019.40 1019.24 1019.25 1019.46 1019.28 1019.19 1019.07 1019.02 1018.92 1019.00 1018.89 1019.05 1019.76 1019.86 1019.90 1019.93 1019.93 1020.08 1020.28 1020.53
1015.49 1015.94 1016.40 1016.87 1017.12 1017.38 1017.73 1018.00 1018.48 1018.46 1018.51 1018.80 1019.13 1019.17 1019.36 1019.39 1019.39 1019.42 1019.37 1019.33 1019.27 1019.21 1019.13 1019.07 1018.97 1019.07 1019.03 1018.87 1018.64 1018.71 1018.64 1018.59 1018.60 1018.77 1018.86 1019.19 1019.70 1019.78 1019.65 1019.72 1019.83 1019.92 1020.10
1015.09 1015.86 1016.19 1016.63 1016.95 1017.19 1017.64 1017.91 1018.53 1018.34 1018.47 1018.76 1019.20 1019.24 1019.31 1019.34 1019.29 1019.46 1019.26 1019.19 1019.17 1019.18 1019.18 1019.08 1018.93 1018.76 1018.56 1018.26 1018.14 1018.06 1018.13 1018.45 1018.35 1018.76 1019.00 1018.92 1019.02 1019.57 1019.52 1019.38 1019.58 1019.81 1019.95
1014.82 1015.54 1016.23 1016.50 1016.81 1017.15 1017.30 1017.77 1018.02 1018.28 1018.46 1018.64 1019.11 1019.10 1019.15 1019.25 1019.22 1019.25 1019.08 1019.00 1019.17 1019.15 1019.09 1018.89 1018.92 1018.79 1018.69 1018.47 1018.13 1017.97 1017.98 1017.88 1017.84 1017.94 1018.16 1018.29 1018.50 1018.50 1019.01 1019.30 1019.34 1019.53 1019.72
1014.56 1015.31 1015.85 1016.33 1016.67 1017.01 1017.28 1017.56 1017.93 1018.26 1018.44 1018.55 1018.80 1018.98 1019.07 1019.12 1019.07 1019.18 1019.00 1018.98 1019.19 1019.20 1019.20 1019.09 1019.16 1019.19 1018.83 1018.49 1018.04 1017.83 1017.87 1017.90 1017.80 1017.81 1017.97 1018.15 1018.32 1018.43 1018.53 1018.93 1019.18 1019.29 1019.38
1014.14 1014.95 1015.47 1015.99 1016.44 1016.98 1017.31 1017.63 1017.82 1018.12 1018.22 1018.52 1018.56 1018.76 1018.88 1018.99 1019.04 1019.09 1019.03 1019.16 1019.10 1019.06 1019.19 1019.18 1019.28 1019.18 1019.08 1018.80 1018.21 1017.91 1017.92 1017.87 1017.80 1017.67 1017.66 1017.80 1018.06 1018.25 1018.42 1018.75 1018.60 1018.55 1019.10
1013.72 1014.41 1015.00 1015.56 1016.09 1016.72 1017.16 1017.33 1017.53 1017.60 1018.02 1018.33 1018.40 1018.72 1018.73 1018.85 1018.98 1019.02 1018.87 1018.95 1019.09 1019.14 1019.27 1019.42 1019.32 1019.20 1018.89 1018.87 1018.32 1017.81 1017.79 1017.82 1017.66 1017.70 1017.54 1017.65 1017.81 1017.99 1018.25 1018.44 1018.56 1018.41 1018.45
1013.10 1013.81 1014.51 1015.09 1015.72 1016.16 1016.61 1017.02 1017.21 1017.42 1017.72 1017.86 1018.24 1018.56 1018.60 1018.71 1018.88 1018.87 1018.90 1018.87 1019.01 1019.08 1019.26 1019.36 1019.39 1019.12 1019.09 1019.01 1018.54 1018.31 1017.66 1017.60 1017.56 1017.59 1017.70 1017.75 1017.79 1017.91 1018.05 1018.24 1018.48 1018.53 1018.50
1012.40 1013.17 1013.76 1014.48 1015.15 1015.64 1016.17 1016.87 1017.27 1017.50 1017.67 1017.96 1018.16 1018.29 1018.28 1018.51 1018.68 1018.75 1018.77 1018.83 1018.99 1019.11 1018.97 1019.19 1019.29 1019.40 1019.14 1019.21 1019.19 1018.79 1018.20 1017.85 1017.81 1017.63 1017.72 1017.75 1017.94 1017.84 1017.78 1018.00 1018.24 1018.28 1018.37
1011.45 1012.44 1013.20 1013.91 1014.60 1015.22 1015.88 1016.36 1016.65 1016.64 1016.85 1017.17 1017.59 1017.89 1017.98 1018.30 1018.38 1018.45 1018.58 1018.73 1018.85 1018.91 1019.01 1019.05 1019.16 1019.35 1019.37 1019.19 1019.14 1019.12 1019.23 1019.00 1018.20 1017.57 1017.67 1017.77 1017.81 1017.63 1017.71 1017.61 1017.69 1018.11 1018.15
1010.85 1011.61 1012.41 1013.37 1014.10 1014.59 1015.28 1015.69 1016.12 1016.43 1016.60 1016.97 1017.24 1017.58 1017.81 1018.10 1018.17 1018.22 1018.35 1018.54 1018.66 1018.61 1018.86 1019.01 1019.09 1019.29 1019.27 1019.23 1019.15 1019.10 1019.17 1019.04 1019.02 1018.50 1017.69 1017.63 1017.53 1017.51 1017.59 1017.49 1017.37 1017.57 1017.90
1010.19 1011.11 1011.82 1012.68 1013.42 1014.06 1014.68 1015.19 1015.63 1015.98 1016.42 1016.78 1016.91 1017.13 1017.46 1017.64 1017.85 1018.00 1018.09 1018.32 1018.46 1018.49 1018.73 1018.79 1019.09 1019.27 1019.31 1019.34 1019.22 1019.24 1019.02 1018.88 1018.67 1018.62 1018.28 1018.01 1017.74 1017.44 1017.40 1017.42 1017.32 1017.33 1017.50
Wind_Speed
8 13 12 12 12 12 11 11 10 11 12 13 13 14 14 14 13 12 11 9 8 7 6 6 7 6 6 6 8 9 10 10 12 10 10 11 11 12 14 15 13 14 14
16 13 13 13 11 11 10 11 9 10 12 12 12 13 12 12 11 11 10 9 7 6 5 6 5 7 6 7 8 9 8 9 10 10 10 10 10 10 12 12 5 16 15
18 17 13 12 9 8 9 11 10 10 11 11 11 12 11 11 11 10 9 7 6 5 4 5 6 6 7 7 7 9 9 11 9 9 7 4 7 8 11 12 10 12 14
18 16 15 17 7 4 6 8 9 10 10 10 11 11 12 11 10 8 8 7 5 5 6 6 7 7 7 7 7 9 9 9 7 7 5 5 4 7 8 12 10 11 12
17 15 17 19 15 13 9 8 9 10 11 10 10 10 11 11 9 9 8 6 6 7 7 6 6 7 7 7 6 5 5 3 3 5 5 4 3 8 8 10 11 12 11
18 18 21 20 16 12 10 9 9 10 11 10 9 10 10 11 9 9 8 8 8 8 7 6 7 7 5 4 4 4 2 3 1 5 6 5 5 5 8 10 8 10 11
17 17 15 21 18 13 10 11 10 9 12 11 11 10 10 10 9 8 8 9 9 9 8 6 5 3 3 3 2 3 3 4 3 5 5 5 5 2 6 7 7 8 9
15 17 12 17 17 16 13 11 9 10 11 10 11 10 10 10 8 8 8 9 8 8 7 4 2 2 2 1 4 4 2 2 2 3 4 5 7 4 5 6 6 8 9
15 14 9 12 14 16 14 11 9 8 9 9 10 8 9 9 8 6 7 7 6 5 4 2 1 2 3 2 4 5 5 4 4 2 4 4 6 6 5 7 9 9 9
13 14 11 10 11 9 10 8 7 7 8 8 9 10 10 7 6 5 4 6 3 2 1 1 3 4 2 1 2 1 2 6 3 3 3 4 8 8 9 7 9 10 10
10 11 12 12 10 8 8 7 7 7 8 8 8 8 8 5 6 6 5 1 3 2 2 3 4 6 3 1 2 3 5 2 4 3 3 5 6 10 11 9 6 8 10
13 12 11 11 10 10 7 6 5 5 6 5 5 6 4 5 3 1 1 2 3 3 5 5 6 6 5 3 2 3 3 3 4 4 4 7 6 7 10 10 9 9 9
14 10 11 11 10 10 6 6 4 4 4 5 5 4 4 3 3 1 1 2 3 3 4 4 4 4 4 4 4 4 5 5 4 3 4 9 9 10 10 11 11 10 11
15 13 13 12 10 9 6 4 5 5 5 4 5 5 4 3 3 1 2 2 3 3 4 4 4 4 5 5 6 6 6 5 4 4 5 10 9 10 12 11 9 10 10
16 15 14 12 11 9 8 5 5 4 5 5 5 6 4 4 2 2 2 3 3 3 4 5 4 4 4 5 4 5 4 5 5 3 2 11 10 9 10 11 11 10 10
14 16 15 14 12 10 8 7 5 5 5 5 4 4 5 4 3 2 3 4 4 4 4 4 5 5 4 5 6 4 4 4 3 3 2 5 8 8 9 8 10 9 9
15 14 16 14 12 11 10 8 5 6 6 5 4 6 5 5 4 3 2 2 1 2 5 4 5 4 4 5 5 4 4 3 1 3 3 3 4 7 4 6 6 6 6
13 15 15 12 13 12 10 8 6 6 5 5 4 5 6 5 4 2 1 2 2 1 2 2 3 4 5 5 6 4 4 4 6 5 2 0 1 1 3 2 2 5 6
15 14 15 15 14 13 10 7 7 7 6 5 5 5 6 5 4 2 1 1 2 1 0 1 1 2 4 5 5 4 4 4 5 3 1 1 3 0 2 3 2 5 6
15 14 14 13 14 12 8 7 6 5 5 5 5 6 7 5 5 3 2 1 2 2 2 2 1 1 3 5 5 4 3 3 4 4 3 1 2 2 1 3 3 2 3
14 15 15 15 13 11 9 9 8 8 7 6 6 8 7 5 6 4 3 3 3 3 1 1 1 2 1 4 4 2 2 2 2 2 3 3 3 2 1 1 3 3 3
16 16 15 15 14 13 10 8 6 7 7 6 5 7 8 7 7 6 4 4 3 3 3 1 1 1 0 4 4 2 3 2 2 4 3 2 4 3 2 2 3 4 4
17 17 16 16 16 13 13 8 5 5 3 6 6 7 9 8 8 8 7 5 4 4 3 2 1 2 1 1 4 3 2 2 3 2 3 3 5 4 3 3 3 4 5
18 17 17 17 16 14 14 12 13 10 9 8 8 7 7 9 10 9 8 6 5 3 3 2 2 1 2 2 1 3 3 3 3 2 0 3 5 5 4 2 4 4 5
16 17 17 17 16 15 15 13 12 11 8 5 6 8 8 7 10 10 8 7 7 5 4 4 3 1 0 2 2 2 2 1 1 3 4 4 4 4 4 3 1 3 5
16 16 16 17 17 16 16 16 15 13 10 7 8 7 7 7 8 9 9 7 6 5 5 4 3 4 2 2 1 2 3 3 3 3 5 5 6 4 3 2 1 1 3
Wind_Direction
159 149 144 136 128 127 126 123 121 120 112 118 123 131 140 151 152 149 143 138 137 120 96 75 73 86 91 80 89 89 100 108 111 120 126 132 131 125 135 130 140 122 128
144 147 150 136 139 140 137 134 130 126 125 127 131 134 137 145 152 150 149 149 150 134 101 81 84 101 103 93 85 93 105 97 108 117 133 138 143 142 124 130 154 123 131
143 145 137 133 139 138 150 148 140 135 130 137 136 134 146 153 154 159 158 159 166 150 126 120 118 117 115 101 93 91 92 92 92 101 104 135 133 150 150 140 131 134 134
139 144 128 104 79 151 170 159 152 143 140 139 135 134 147 152 157 164 168 167 173 165 148 138 134 125 107 100 110 120 113 96 96 109 139 132 138 147 150 148 145 138 136
141 135 132 137 164 205 185 171 167 151 149 136 140 150 146 140 145 160 161 171 162 150 149 140 129 119 110 109 115 130 130 120 117 127 137 129 164 133 150 158 156 154 158
144 150 142 151 175 202 188 187 176 159 144 143 156 158 141 141 153 156 155 160 156 145 151 135 129 122 123 128 155 146 103 79 133 120 152 138 161 135 163 172 170 163 161
150 149 155 159 174 193 200 192 179 174 155 153 163 151 142 145 156 149 154 149 151 152 132 136 121 104 95 93 132 172 144 69 89 128 160 172 160 94 163 165 177 173 169
153 152 159 165 176 185 188 183 178 181 152 156 155 154 149 146 159 158 155 145 141 138 138 129 111 44 63 67 82 68 114 190 124 119 167 195 136 163 193 181 200 196 178
157 154 149 175 175 177 173 171 185 170 151 159 155 153 142 153 153 170 154 141 143 138 143 149 131 331 3 37 102 108 87 92 205 141 180 194 169 174 180 205 203 201 197
165 158 158 158 162 166 162 162 174 164 141 163 153 158 150 148 138 158 143 120 133 150 180 284 334 333 349 16 59 90 132 142 132 206 168 162 182 191 201 204 231 220 212
166 166 159 158 160 160 155 159 169 165 149 164 154 151 154 141 153 161 79 122 166 206 268 297 309 317 316 219 285 261 198 202 185 189 192 131 195 201 205 217 209 210 221
170 160 157 158 161 167 160 158 143 158 146 165 162 149 129 126 117 97 34 293 266 277 260 279 288 289 266 293 242 184 204 173 186 177 206 191 222 234 219 206 205 206 213
172 166 165 163 171 175 156 164 158 163 152 155 139 148 130 148 150 152 217 238 261 223 274 261 262 259 267 256 270 253 243 222 189 201 149 194 204 221 233 220 217 206 198
176 173 177 172 176 187 166 168 164 170 165 159 158 162 162 168 155 198 275 258 242 262 275 270 285 293 276 270 281 263 236 234 197 191 166 199 208 211 218 220 211 203 207
180 178 185 181 183 182 183 172 168 183 175 155 171 175 173 171 182 245 236 251 257 259 275 276 287 291 288 271 278 300 244 231 231 223 200 188 204 196 201 213 209 203 210
186 183 183 191 188 184 183 179 171 188 171 163 171 180 191 204 218 238 273 267 256 245 254 288 314 317 307 288 283 333 332 315 208 189 177 177 210 215 205 203 212 213 209
189 187 189 189 190 190 191 186 167 195 179 170 169 178 181 197 218 269 260 258 250 259 274 276 293 311 313 329 321 336 337 18 39 98 149 220 176 205 224 188 195 236 240
191 187 189 194 196 198 196 188 190 196 193 185 182 182 199 206 243 240 203 147 109 309 278 323 342 336 332 327 327 333 352 5 7 9 27 75 176 304 142 44 238 237 254
193 188 190 195 199 200 198 193 195 206 198 198 186 191 193 209 229 225 153 60 162 151 258 309 39 313 324 328 316 343 354 358 358 355 352 17 69 353 326 94 298 292 273
196 193 196 196 199 200 193 195 195 207 205 210 200 204 191 207 229 224 180 158 259 225 259 309 309 348 327 334 326 345 347 346 6 9 36 351 25 3 280 272 286 194 245
195 192 195 195 196 190 189 194 205 205 204 211 211 213 207 201 224 226 223 209 204 239 328 176 261 314 359 354 311 355 52 17 28 19 25 57 44 21 11 245 279 274 219
191 194 190 195 193 193 190 197 205 195 208 216 212 215 225 203 216 229 223 220 208 208 218 214 234 291 351 21 359 313 359 112 54 32 40 36 18 353 291 223 240 244 250
192 191 192 191 194 197 198 183 174 176 183 202 208 218 224 215 215 221 214 223 215 224 198 226 201 273 308 85 22 341 313 358 328 28 30 2 347 324 314 240 259 252 248
196 190 192 189 191 192 189 189 197 204 205 209 210 214 224 215 218 218 216 209 211 212 202 194 145 306 296 55 66 41 12 358 347 312 66 8 345 3 1 264 250 238 247
190 188 189 190 192 191 188 196 195 208 216 207 212 211 218 208 216 217 212 201 204 218 205 211 179 230 299 339 0 352 6 334 3 310 318 337 327 6 23 357 283 233 222
190 190 186 186 191 191 193 196 200 203 205 204 210 196 206 200 200 210 208 204 203 216 210 209 209 220 246 271 285 321 326 326 330 305 293 302 314 318 340 26 356 248 223